Flag for Germany Weather past 2 weeks in Bocholt, North Rhine-Westphalia, Germany

Now
63 °F

Scattered clouds.


Feels Like: 63 °F
Forecast: 48 / 62 °F
Wind: 17 mph from Southwest

Location: Niederrhein

Current Time: Aug 22, 2014 at 1:51:11 PM

Latest Report: Aug 22, 2014 at 1:20 PM


Visibility: N/A

Pressure: 29.86 "Hg

Humidity: 56%

Dew point: 46 °F

Location of BocholtLocation

Historic Weather in Bocholt — Graph

°F

Bocholt temperature yesterday

Maximum temperature yesterday: 66 °F (at 4:50 PM)
Minimum temperature yesterday: 45 °F (at 6:50 AM)
Average temperature yesterday: 58 °F

Past Weeks' High & Low Weather Summary

 TemperatureHumidityPressure
High77 °F (Aug 8, 12:20 PM)100% (Aug 8, 4:50 AM)30.09 "Hg (Aug 8, 4:50 AM)
Low45 °F (Aug 21, 6:50 AM)41% (Aug 13, 4:50 PM)29.53 "Hg (Aug 10, 6:20 PM)
Average62 °F78%29.85 "Hg
* Reported Aug 7 12:20 PM — Aug 22 12:50 PM, Bocholt, Weather by CustomWeather, © 2014

Note: Actual official high and low records may vary slightly from our data, if they occured in-between our weather recording intervals... More about our weather records

Advertising

Bocholt weather history for previous 24 hours

 ConditionsComfort  
Time TempWeatherWind HumidityBarometerVisibility
12:50 PM
Aug 22
64 °FScattered clouds.20 mph56%29.86 "HgN/A
12:20 PM64 °FPassing clouds.15 mph60%29.86 "HgN/A
11:50 AM64 °FPassing clouds.12 mph64%29.86 "HgN/A
11:20 AM61 °FPassing clouds.12 mph68%29.86 "HgN/A
10:50 AM61 °FPassing clouds.13 mph68%29.86 "HgN/A
10:20 AM59 °FSunny.10 mph72%29.86 "Hg10 mi
9:50 AM57 °FPassing clouds.7 mph77%29.89 "HgN/A
9:20 AM57 °FPassing clouds.7 mph82%29.89 "HgN/A
8:50 AM54 °FSunny.7 mph88%29.89 "Hg10 mi
8:20 AM54 °FClear.6 mph88%29.89 "Hg10 mi
7:20 AM54 °FPassing clouds.7 mph82%29.89 "HgN/A
6:50 AM52 °FPassing clouds.7 mph88%29.89 "HgN/A
6:20 AM52 °FPassing clouds.7 mph88%29.89 "HgN/A
5:50 AM52 °FPassing clouds.7 mph88%29.89 "HgN/A
5:20 AM52 °FClear.7 mph88%29.92 "Hg10 mi
4:50 AM52 °FClear.8 mph88%29.92 "Hg10 mi
10:50 PM
Aug 21
55 °FClear.5 mph88%29.95 "Hg10 mi
10:20 PM55 °FPassing clouds.5 mph88%29.95 "HgN/A
9:50 PM55 °FSunny.3 mph94%29.95 "Hg10 mi
9:20 PM55 °FScattered showers. Clear.6 mph88%29.95 "HgN/A
8:50 PM59 °FPartly sunny.5 mph68%29.95 "Hg6 mi
8:20 PM59 °FSunny.3 mph68%29.95 "Hg10 mi
7:50 PM61 °FSunny.5 mph63%29.95 "Hg10 mi
7:20 PM63 °FPassing clouds.7 mph56%29.95 "HgN/A
6:50 PM64 °FPassing clouds.9 mph52%29.95 "HgN/A
6:20 PM63 °FPassing clouds.9 mph59%29.98 "HgN/A
5:50 PM64 °FPassing clouds.6 mph52%29.98 "HgN/A
5:20 PM64 °FPassing clouds.6 mph52%29.98 "HgN/A
4:50 PM66 °FPassing clouds.5 mph49%29.98 "HgN/A
4:20 PM64 °FSunny.3 mph49%29.98 "Hg10 mi
3:50 PM63 °FPassing clouds.6 mph59%29.98 "HgN/A
3:20 PM63 °FPartly sunny.6 mph59%30.01 "HgN/A
2:50 PM63 °FSunny.6 mph59%30.01 "Hg10 mi
2:20 PM63 °FBroken clouds.9 mph56%30.01 "HgN/A
1:50 PM63 °FScattered clouds.7 mph52%30.01 "HgN/A
1:20 PM64 °FScattered clouds.10 mph56%30.01 "HgN/A
Weather by CustomWeather, © 2014

See weather overviewHow to use our weather pages